[[{"header":{"parameterUnit":"m.s-1","parameterCategory":1,"la1":30.2991,"la2":30.254,"lo1":-89.0895,"lo2":-89.0444,"dy":0.0017,"dx":0.0017,"nx":28,"ny":28,"refTime":"2024-12-19T09:00:00:Z","depth":0,"parameterNumber":2,"parameterNumberName":"U-component_of_WINDS"},"data":[0,0,0,0,0,0,0,0,0,0,0,0,0,0,0,0,0,0,0,0,0,0,0,0,0,0,0,0,0,0,0,0,0,0,0,0,0,0,0,0,0,0,0,0,0,0,0,0,0,0,0,0,0,0,0,0,0,0,2.4554,2.4555,0,2.4615,2.4616,2.4616,2.4608,2.4607,2.4606,2.4606,2.4668,2.4671,2.4673,0,0,0,0,0,0,0,0,0,0,0,0,0,2.4434,2.4436,2.4554,2.4555,2.4556,2.4615,2.4616,2.4616,2.4609,2.4607,2.4606,2.4605,2.4667,2.467,2.4674,0,0,0,0,0,0,0,0,0,0,0,0,0,2.449,2.4437,2.4554,2.4559,2.456,2.4615,2.4616,2.4617,2.4609,2.4607,2.4606,2.4604,2.4666,2.467,2.4674,2.4728,0,0,2.4686,2.4687,0,0,0,0,0,0,0,0,2.4487,2.4494,2.4557,2.4559,2.456,2.4603,2.4596,2.4654,2.4609,2.459,2.4605,2.4604,2.4648,2.4653,2.4668,2.4731,2.4733,2.4686,2.4689,2.469,2.4691,0,0,0,0,0,0,0,2.4483,2.4492,2.4578,2.4558,2.456,2.4559,2.4565,2.4607,2.4627,2.4592,2.4591,2.4599,2.4648,2.4664,2.4669,2.4734,2.4686,2.469,2.4692,2.4693,2.4847,2.4849,0,0,0,0,0,0,2.4477,2.4488,2.4576,2.458,2.4519,2.4562,2.4569,2.459,2.4626,2.463,2.46,2.4598,2.4658,2.4664,2.4671,2.4738,2.469,2.4694,2.4696,2.4846,2.4848,2.485,0,0,0,0,0,0,2.4475,2.4485,2.4574,2.4534,2.4545,2.4566,2.459,2.4592,2.4608,2.4632,2.4636,2.4612,2.4657,2.4666,2.4714,2.474,2.4696,2.4699,2.4843,2.4846,2.4849,2.4871,0,0,0,0,0,0,2.4471,2.4484,2.4504,2.4535,2.4547,2.4615,2.4591,2.4595,2.4615,2.4613,2.4645,2.4649,2.4657,2.4709,2.4718,2.4745,2.4702,2.4841,2.4845,2.4848,2.4868,2.4874,2.488,0,0,0,0,0,2.4467,2.4508,2.4505,2.4516,2.4573,2.4617,2.4624,2.4632,2.4617,2.4638,2.4654,2.4648,2.4736,2.4714,2.4724,2.4752,2.484,2.4844,2.4848,2.4866,2.4873,2.488,0,0,0,0,0,0,2.448,2.4512,2.4509,2.4561,2.4586,2.4615,2.4641,2.4639,2.4669,2.4666,2.4675,2.4683,2.4732,2.4747,2.4722,2.4808,2.4786,2.4792,2.4796,2.4803,2.4809,2.4804,2.4705,0,0,0,0,0,2.4489,2.4521,2.4548,2.4591,2.4604,2.4621,2.464,2.4644,2.4671,2.4681,2.47,2.4727,2.4761,2.4783,2.4815,2.4871,2.4879,2.4896,2.4901,2.4906,2.4911,2.4944,2.4952,2.4863,2.4863,2.4862,0,0,2.4507,2.4529,2.4548,2.4594,2.4614,2.4648,2.4629,2.4666,2.4692,2.4687,2.4734,2.475,2.478,2.4833,2.4857,2.4847,2.4938,2.4911,2.4914,2.4917,2.4949,2.4957,2.4965,2.4865,2.4865,2.4864,0,0,2.4558,2.4577,2.4616,2.4637,2.4668,2.468,2.4689,2.4719,2.4729,2.4777,2.4774,2.4806,2.4863,2.4886,2.4905,2.4967,2.4964,2.4978,2.5007,2.5039,2.5046,2.5052,2.5076,2.5085,2.4983,2.4983,2.4983,0,2.4577,2.4629,2.4637,2.4675,2.4695,2.4693,2.4733,2.4753,2.4793,2.4808,2.4796,2.487,2.489,2.4949,2.4965,2.4979,2.4992,2.4974,2.5044,2.5051,2.5057,2.508,2.5088,2.4985,2.4984,2.4984,2.4984,0,2.4651,2.4687,2.4715,2.4754,2.4778,2.4817,2.4832,2.4856,2.4859,2.4872,2.4922,2.4946,2.4984,2.4999,2.5001,2.5059,2.5052,2.5042,2.502,2.5067,2.5089,2.5097,2.4987,2.4986,2.4986,2.4985,0,0,2.4711,2.4756,2.4766,2.4785,2.482,2.4848,2.4888,2.4925,2.4946,2.4974,2.5009,2.5059,2.5051,2.5072,2.5078,2.5106,2.5156,2.5093,2.5094,2.5105,2.5223,2.5231,2.5241,2.5154,2.5156,2.5157,2.5221,0,2.4767,2.4836,2.4846,2.4908,2.4943,2.4942,2.4977,2.5003,2.5017,2.5049,2.5064,2.51,2.5086,2.5099,2.5126,2.5144,2.518,2.5139,2.5187,2.5189,2.518,2.5252,2.526,2.5319,2.523,2.5231,2.5232,0,2.4841,2.4872,2.4937,2.497,2.4985,2.5016,2.5052,2.5082,2.5113,2.5121,2.5146,2.5149,2.5192,2.5168,2.5228,2.52,2.5221,2.5233,2.5235,2.524,2.5214,2.526,2.5338,2.5348,2.5245,2.5244,2.5243,0,2.4879,2.4938,2.4985,2.5001,2.5039,2.5062,2.5079,2.5108,2.5131,2.5163,2.5178,2.5215,2.5235,2.5264,2.5277,2.5259,2.5337,2.5314,2.5346,2.5346,2.5363,2.5362,2.5446,2.5375,2.5375,2.5374,2.5374,0,2.4941,2.4981,2.5003,2.5032,2.5079,2.509,2.5136,2.5152,2.5178,2.5212,2.5213,2.5245,2.526,2.5294,2.5305,2.5354,2.5363,2.5372,2.5374,2.5372,2.5371,2.5386,2.5382,2.5377,2.5376,2.5376,2.5375,0,2.4992,2.5008,2.506,2.5093,2.5102,2.5135,2.5163,2.5192,2.5207,2.5249,2.526,2.5283,2.5323,2.534,2.5389,2.5396,2.5453,2.5452,2.5443,2.5444,2.5476,2.5473,2.5573,2.5588,2.5506,2.5507,2.5507,0,2.503,2.5062,2.5098,2.5121,2.5139,2.5175,2.5199,2.5212,2.5237,2.5275,2.53,2.5341,2.5374,2.5439,2.5461,2.5499,2.55,2.5532,2.5505,2.5503,2.5502,2.55,2.5504,2.5537,2.5538,2.5539,2.5539,0,2.5097,2.5104,2.5138,2.5176,2.5204,2.5234,2.5263,2.5282,2.53,2.5328,2.537,2.5396,2.5447,2.5488,2.5528,2.5547,2.5547,2.5548,2.5557,2.5556,2.555,2.5555,2.5458,2.5545,2.5545,2.5544,2.5544,2.5544,2.5144,2.5173,2.5204,2.5242,2.5266,2.5294,2.5323,2.5342,2.5377,2.542,2.5426,2.5471,2.5503,2.5557,2.5578,2.5614,2.5606,2.5619,2.5623,2.5626,2.5629,2.5544,2.5621,2.5621,2.5621,2.5621,2.5621,0,2.5212,2.5233,2.5268,2.5309,2.534,2.5337,2.537,2.5396,2.5436,2.5466,2.5499,2.5548,2.5589,2.5614,2.5655,2.568,2.5681,2.569,2.5689,2.5694,2.5634,2.5622,2.5689,2.5689,2.5689,2.5689,2.5689,2.5689,2.5251,2.5301,2.5312,2.5373,2.5393,2.5438,2.5457,2.5484,2.5508,2.5562,2.5596,2.5613,2.5641,2.5685,2.5722,2.5729,2.5745,2.5755,2.5761,2.5705,2.5697,2.5691,2.568,2.5758,2.5758,2.5818,2.5819,2.5819]},{"header":{"parameterUnit":"m.s-1","parameterCategory":1,"la1":30.2991,"la2":30.254,"lo1":-89.0895,"lo2":-89.0444,"dy":0.0017,"dx":0.0017,"nx":28,"ny":28,"refTime":"2024-12-19T09:00:00:Z","depth":0,"parameterNumber":3,"parameterNumberName":"V-component_of_WINDS"},"data":[0,0,0,0,0,0,0,0,0,0,0,0,0,0,0,0,0,0,0,0,0,0,0,0,0,0,0,0,0,0,0,0,0,0,0,0,0,0,0,0,0,0,0,0,0,0,0,0,0,0,0,0,0,0,0,0,0,0,-5.2105,-5.2106,0,-5.2189,-5.219,-5.2191,-5.2201,-5.22,-5.2199,-5.2198,-5.2278,-5.2281,-5.2283,0,0,0,0,0,0,0,0,0,0,0,0,0,-5.1949,-5.1952,-5.2105,-5.2106,-5.2108,-5.2189,-5.219,-5.2192,-5.2201,-5.22,-5.2199,-5.2198,-5.2277,-5.228,-5.2284,0,0,0,0,0,0,0,0,0,0,0,0,0,-5.2023,-5.1953,-5.2105,-5.2122,-5.2125,-5.2189,-5.219,-5.2192,-5.2201,-5.22,-5.2199,-5.2197,-5.2276,-5.228,-5.2284,-5.2336,0,0,-5.2297,-5.2299,0,0,0,0,0,0,0,0,-5.2019,-5.2029,-5.2119,-5.2121,-5.2124,-5.2184,-5.2165,-5.224,-5.2201,-5.2172,-5.2198,-5.2197,-5.2247,-5.2254,-5.2272,-5.2339,-5.2343,-5.2298,-5.23,-5.2302,-5.2304,0,0,0,0,0,0,0,-5.2014,-5.2025,-5.2138,-5.212,-5.2123,-5.2124,-5.2133,-5.2179,-5.2215,-5.2174,-5.2175,-5.2185,-5.2248,-5.2268,-5.2274,-5.2344,-5.2298,-5.2302,-5.2304,-5.2306,-5.246,-5.2461,0,0,0,0,0,0,-5.2006,-5.2021,-5.2136,-5.2141,-5.2068,-5.2128,-5.2138,-5.2165,-5.2215,-5.2221,-5.2186,-5.2186,-5.2261,-5.2269,-5.2277,-5.2341,-5.2302,-5.2306,-5.2309,-5.2458,-5.246,-5.2462,0,0,0,0,0,0,-5.2003,-5.2016,-5.2132,-5.2081,-5.2096,-5.2132,-5.2162,-5.2168,-5.2187,-5.2224,-5.223,-5.22,-5.226,-5.2271,-5.2322,-5.2344,-5.2308,-5.2312,-5.2457,-5.2459,-5.2461,-5.247,0,0,0,0,0,0,-5.1998,-5.2015,-5.2036,-5.2082,-5.2099,-5.2177,-5.2164,-5.217,-5.2196,-5.2195,-5.2238,-5.2244,-5.226,-5.2315,-5.2326,-5.235,-5.2316,-5.2455,-5.2458,-5.246,-5.2468,-5.2473,-5.2477,0,0,0,0,0,-5.1993,-5.2033,-5.2037,-5.205,-5.2126,-5.2179,-5.2188,-5.2208,-5.2197,-5.2218,-5.2242,-5.2243,-5.234,-5.2321,-5.2333,-5.2358,-5.2453,-5.2457,-5.246,-5.2466,-5.2472,-5.2477,0,0,0,0,0,0,-5.1985,-5.2039,-5.2044,-5.2101,-5.2136,-5.218,-5.2207,-5.2213,-5.2249,-5.2247,-5.2268,-5.2277,-5.2328,-5.2348,-5.2325,-5.2411,-5.2396,-5.2402,-5.2396,-5.2402,-5.2406,-5.24,-5.2319,0,0,0,0,0,-5.1991,-5.2031,-5.2075,-5.2121,-5.2139,-5.217,-5.2193,-5.2206,-5.2242,-5.2256,-5.2283,-5.2316,-5.2355,-5.2379,-5.2417,-5.2472,-5.2481,-5.2495,-5.2499,-5.2502,-5.2507,-5.2539,-5.2546,-5.2473,-5.2473,-5.2473,0,0,-5.2001,-5.2036,-5.2059,-5.2121,-5.2149,-5.2189,-5.2182,-5.2224,-5.2254,-5.2261,-5.2313,-5.2334,-5.2373,-5.2427,-5.2452,-5.2445,-5.253,-5.2507,-5.2509,-5.2512,-5.2543,-5.255,-5.2556,-5.2475,-5.2475,-5.2474,0,0,-5.2042,-5.2072,-5.2115,-5.2144,-5.2189,-5.221,-5.222,-5.2265,-5.2281,-5.2333,-5.234,-5.2375,-5.2441,-5.2469,-5.2491,-5.2546,-5.2548,-5.2557,-5.2578,-5.2609,-5.2615,-5.262,-5.2641,-5.2648,-5.2562,-5.2562,-5.2562,0,-5.2049,-5.2111,-5.2135,-5.2178,-5.2205,-5.2218,-5.2261,-5.2288,-5.2341,-5.2358,-5.2351,-5.2435,-5.2462,-5.2523,-5.2537,-5.2555,-5.2567,-5.2552,-5.2613,-5.2618,-5.2624,-5.2643,-5.265,-5.2563,-5.2563,-5.2563,-5.2563,0,-5.2118,-5.2162,-5.2191,-5.2246,-5.2276,-5.2318,-5.2348,-5.2375,-5.2386,-5.2407,-5.2461,-5.2494,-5.2539,-5.2555,-5.2564,-5.2619,-5.2613,-5.2609,-5.2594,-5.2631,-5.265,-5.2657,-5.2564,-5.2564,-5.2563,-5.2563,0,0,-5.2153,-5.2224,-5.2234,-5.226,-5.2312,-5.2345,-5.2389,-5.2436,-5.2459,-5.2496,-5.2533,-5.259,-5.2588,-5.2613,-5.2626,-5.2654,-5.2696,-5.2646,-5.2648,-5.2655,-5.2759,-5.2762,-5.277,-5.2699,-5.27,-5.2702,-5.2756,0,-5.22,-5.2281,-5.2305,-5.2372,-5.2413,-5.2427,-5.2465,-5.25,-5.2522,-5.2559,-5.2582,-5.2623,-5.2616,-5.2632,-5.266,-5.2685,-5.2717,-5.2682,-5.2732,-5.2734,-5.2722,-5.278,-5.2782,-5.2832,-5.2763,-5.2765,-5.2766,0,-5.2264,-5.2306,-5.2378,-5.2428,-5.2446,-5.248,-5.2526,-5.2562,-5.2602,-5.2616,-5.2647,-5.2659,-5.2704,-5.2688,-5.275,-5.2726,-5.2748,-5.2764,-5.2766,-5.2771,-5.2751,-5.2786,-5.2848,-5.2856,-5.2777,-5.2776,-5.2775,0,-5.2283,-5.2358,-5.2411,-5.2433,-5.2491,-5.2515,-5.254,-5.258,-5.2608,-5.2648,-5.2666,-5.2709,-5.2733,-5.2766,-5.2789,-5.2775,-5.2851,-5.2835,-5.2863,-5.2862,-5.2877,-5.2876,-5.2944,-5.2892,-5.2892,-5.2892,-5.2892,0,-5.2332,-5.2376,-5.2421,-5.2454,-5.2504,-5.2531,-5.2579,-5.2604,-5.264,-5.2677,-5.2691,-5.2725,-5.2754,-5.2792,-5.281,-5.286,-5.287,-5.2882,-5.2886,-5.2881,-5.288,-5.2895,-5.2892,-5.2894,-5.2893,-5.2893,-5.2893,0,-5.2361,-5.2394,-5.2453,-5.2505,-5.2519,-5.2554,-5.2598,-5.263,-5.2654,-5.2701,-5.2713,-5.275,-5.2796,-5.2823,-5.2879,-5.2892,-5.2947,-5.295,-5.2934,-5.2936,-5.2962,-5.296,-5.3042,-5.3055,-5.2995,-5.2995,-5.2996,0,-5.239,-5.2425,-5.2482,-5.251,-5.2536,-5.258,-5.2609,-5.2638,-5.2668,-5.2719,-5.2744,-5.2792,-5.2831,-5.2904,-5.2934,-5.2978,-5.2982,-5.3008,-5.2988,-5.2982,-5.2983,-5.298,-5.2984,-5.3011,-5.3011,-5.3012,-5.3012,0,-5.2439,-5.2454,-5.2497,-5.2547,-5.2583,-5.2622,-5.2662,-5.2683,-5.2718,-5.2751,-5.28,-5.2831,-5.2891,-5.2938,-5.2985,-5.3009,-5.3016,-5.3019,-5.3027,-5.3022,-5.3012,-5.3018,-5.2943,-5.3016,-5.3016,-5.3015,-5.3015,-5.3015,-5.2469,-5.2501,-5.2548,-5.2596,-5.263,-5.2667,-5.2701,-5.2731,-5.2773,-5.2826,-5.284,-5.2891,-5.2932,-5.2997,-5.3023,-5.3063,-5.3058,-5.307,-5.3074,-5.3076,-5.3077,-5.3006,-5.3071,-5.3071,-5.3071,-5.3071,-5.3071,0,-5.2518,-5.255,-5.2594,-5.2651,-5.2689,-5.2697,-5.2741,-5.2772,-5.2818,-5.2858,-5.2898,-5.2954,-5.3001,-5.3037,-5.3084,-5.3109,-5.3113,-5.312,-5.3118,-5.3124,-5.3078,-5.3066,-5.3116,-5.3116,-5.3116,-5.3116,-5.3116,-5.3116,-5.2548,-5.2604,-5.2625,-5.2698,-5.2729,-5.2782,-5.2807,-5.2842,-5.2874,-5.2937,-5.2977,-5.3002,-5.304,-5.3091,-5.3133,-5.3143,-5.3159,-5.3166,-5.3175,-5.3132,-5.3127,-5.3122,-5.3111,-5.3169,-5.3169,-5.3217,-5.3218,-5.3218]}]]